[[{"header":{"parameterUnit":"m.s-1","parameterCategory":1,"la1":30.2991,"la2":30.254,"lo1":-89.0895,"lo2":-89.0444,"dy":0.0017,"dx":0.0017,"nx":28,"ny":28,"refTime":"2025-04-23T09:00:00:Z","depth":0,"parameterNumber":2,"parameterNumberName":"U-component_of_WINDS"},"data":[0,0,0,0,0,0,0,0,0,0,0,0,0,0,0,0,0,0,0,0,0,0,0,0,0,0,0,0,0,0,0,0,0,0,0,0,0,0,0,0,0,0,0,0,0,0,0,0,0,0,0,0,0,0,0,0,0,0,-2.595,-2.595,0,-2.5954,-2.5954,-2.5954,-2.5903,-2.5902,-2.5901,-2.5899,-2.5905,-2.5906,-2.5908,0,0,0,0,0,0,0,0,0,0,0,0,0,-2.5899,-2.59,-2.595,-2.595,-2.595,-2.5954,-2.5954,-2.5954,-2.5904,-2.5902,-2.59,-2.5899,-2.5904,-2.5906,-2.5908,0,0,0,0,0,0,0,0,0,0,0,0,0,-2.5914,-2.59,-2.595,-2.5925,-2.5923,-2.5954,-2.5954,-2.5954,-2.5904,-2.5902,-2.59,-2.5898,-2.5904,-2.5906,-2.5908,-2.5963,0,0,-2.5915,-2.5915,0,0,0,0,0,0,0,0,-2.5913,-2.5916,-2.5929,-2.5927,-2.5924,-2.5926,-2.5938,-2.5957,-2.5905,-2.5911,-2.5899,-2.5897,-2.5914,-2.5915,-2.592,-2.5963,-2.5964,-2.5915,-2.5916,-2.5917,-2.5918,0,0,0,0,0,0,0,-2.5912,-2.5915,-2.5951,-2.5929,-2.5926,-2.5914,-2.5914,-2.5941,-2.5924,-2.5911,-2.5907,-2.5908,-2.5912,-2.5918,-2.592,-2.5964,-2.5915,-2.5917,-2.5918,-2.5919,-2.6052,-2.6054,0,0,0,0,0,0,-2.5914,-2.5915,-2.5951,-2.5952,-2.5913,-2.5917,-2.5917,-2.5928,-2.5924,-2.5921,-2.591,-2.5906,-2.5916,-2.5918,-2.592,-2.5984,-2.5917,-2.5919,-2.592,-2.605,-2.6053,-2.6055,0,0,0,0,0,0,-2.5913,-2.5918,-2.5951,-2.5932,-2.5935,-2.592,-2.5933,-2.5929,-2.5935,-2.5923,-2.592,-2.5919,-2.5914,-2.5917,-2.5953,-2.5983,-2.592,-2.5922,-2.6047,-2.6051,-2.6054,-2.6112,0,0,0,0,0,0,-2.5912,-2.5918,-2.5938,-2.5933,-2.5937,-2.5984,-2.5935,-2.593,-2.5939,-2.5933,-2.5931,-2.5929,-2.5913,-2.595,-2.5955,-2.5985,-2.5924,-2.6044,-2.6049,-2.6053,-2.6107,-2.6117,-2.6125,0,0,0,0,0,-2.591,-2.5955,-2.594,-2.5944,-2.5962,-2.5985,-2.5988,-2.5968,-2.5941,-2.5962,-2.5954,-2.5929,-2.5979,-2.5954,-2.5959,-2.599,-2.6042,-2.6048,-2.6052,-2.6103,-2.6115,-2.6125,0,0,0,0,0,0,-2.5964,-2.5954,-2.5937,-2.5981,-2.5984,-2.5977,-2.6002,-2.5981,-2.5992,-2.5987,-2.5962,-2.5962,-2.6002,-2.6,-2.5972,-2.6044,-2.6006,-2.6013,-2.6043,-2.6054,-2.6063,-2.6062,-2.5925,0,0,0,0,0,-2.5982,-2.6001,-2.5991,-2.6031,-2.6033,-2.6018,-2.6027,-2.6012,-2.6015,-2.6016,-2.6011,-2.6015,-2.6031,-2.6043,-2.6058,-2.6107,-2.6106,-2.6132,-2.6141,-2.6148,-2.6153,-2.6179,-2.619,-2.6072,-2.6072,-2.6071,0,0,-2.6017,-2.6013,-2.6027,-2.6042,-2.6042,-2.6063,-2.6019,-2.6043,-2.6059,-2.602,-2.6052,-2.6049,-2.6052,-2.6095,-2.6114,-2.6095,-2.6186,-2.6154,-2.6161,-2.6162,-2.6185,-2.6197,-2.6207,-2.6075,-2.6074,-2.6074,0,0,-2.6092,-2.6092,-2.6124,-2.6126,-2.6128,-2.6117,-2.6126,-2.6121,-2.6117,-2.615,-2.6121,-2.614,-2.6169,-2.6172,-2.6178,-2.6255,-2.6231,-2.626,-2.6307,-2.6332,-2.6341,-2.6349,-2.6376,-2.6386,-2.6266,-2.6266,-2.6266,0,-2.6135,-2.6165,-2.6144,-2.617,-2.6177,-2.6143,-2.6176,-2.6179,-2.6186,-2.6192,-2.617,-2.6206,-2.6206,-2.6249,-2.6268,-2.6274,-2.6282,-2.626,-2.6342,-2.635,-2.6357,-2.6382,-2.6392,-2.627,-2.6269,-2.6269,-2.6268,0,-2.6219,-2.624,-2.6267,-2.6274,-2.6284,-2.6314,-2.6297,-2.631,-2.6294,-2.6286,-2.632,-2.6318,-2.6332,-2.6341,-2.6326,-2.6382,-2.637,-2.6346,-2.6307,-2.6372,-2.6395,-2.6404,-2.6274,-2.6273,-2.6272,-2.6271,0,0,-2.6327,-2.6322,-2.6332,-2.6334,-2.6334,-2.6351,-2.6379,-2.6392,-2.6403,-2.641,-2.6433,-2.6459,-2.6436,-2.6443,-2.6428,-2.645,-2.651,-2.6423,-2.6423,-2.6438,-2.6571,-2.6588,-2.66,-2.6495,-2.6497,-2.6499,-2.657,0,-2.6399,-2.6446,-2.6427,-2.6476,-2.6496,-2.6464,-2.6488,-2.6491,-2.6485,-2.65,-2.6493,-2.6512,-2.6481,-2.6485,-2.6506,-2.6499,-2.6536,-2.6493,-2.6516,-2.6517,-2.6515,-2.6612,-2.663,-2.6698,-2.6579,-2.6581,-2.6582,0,-2.6488,-2.6498,-2.6549,-2.6545,-2.6552,-2.6575,-2.6585,-2.6601,-2.6604,-2.6597,-2.6605,-2.6585,-2.6613,-2.6576,-2.6614,-2.6585,-2.6593,-2.6592,-2.6594,-2.6594,-2.6552,-2.6614,-2.6719,-2.6729,-2.6596,-2.6595,-2.6594,0,-2.6561,-2.6586,-2.662,-2.6623,-2.662,-2.6637,-2.6636,-2.6637,-2.6646,-2.6656,-2.6661,-2.6674,-2.6681,-2.6692,-2.6676,-2.6651,-2.6716,-2.6678,-2.6711,-2.6712,-2.6725,-2.6724,-2.6832,-2.6733,-2.6733,-2.6733,-2.6733,0,-2.6642,-2.6674,-2.6652,-2.6672,-2.6707,-2.6687,-2.6722,-2.6718,-2.6719,-2.6739,-2.6713,-2.6731,-2.671,-2.6727,-2.6716,-2.6748,-2.6752,-2.6747,-2.6743,-2.6749,-2.6749,-2.6753,-2.6747,-2.6735,-2.6735,-2.6734,-2.6734,0,-2.6728,-2.6715,-2.6749,-2.6743,-2.6743,-2.6769,-2.6764,-2.6783,-2.6775,-2.68,-2.6804,-2.6792,-2.681,-2.6796,-2.6815,-2.6807,-2.6849,-2.684,-2.6848,-2.6845,-2.6879,-2.6875,-2.6991,-2.7005,-2.6899,-2.69,-2.6901,0,-2.678,-2.6804,-2.6801,-2.6812,-2.6813,-2.6831,-2.684,-2.6821,-2.6832,-2.6837,-2.6855,-2.6871,-2.6883,-2.6915,-2.6907,-2.6921,-2.6911,-2.6951,-2.6913,-2.6917,-2.691,-2.6908,-2.691,-2.6958,-2.6959,-2.696,-2.6961,0,-2.6874,-2.6866,-2.688,-2.6892,-2.6903,-2.6912,-2.6918,-2.6928,-2.6909,-2.6922,-2.6941,-2.695,-2.6969,-2.6985,-2.6997,-2.6997,-2.6976,-2.6973,-2.6981,-2.6986,-2.699,-2.6987,-2.6868,-2.697,-2.6969,-2.6969,-2.6968,-2.6968,-2.6944,-2.6963,-2.6964,-2.698,-2.6983,-2.699,-2.7007,-2.7001,-2.7016,-2.7029,-2.7017,-2.704,-2.7042,-2.7055,-2.7058,-2.7075,-2.7059,-2.7071,-2.7074,-2.7077,-2.7081,-2.6988,-2.7077,-2.7077,-2.7077,-2.7077,-2.7076,0,-2.7035,-2.7034,-2.7049,-2.7059,-2.7072,-2.7051,-2.7057,-2.7069,-2.7089,-2.7093,-2.7105,-2.7126,-2.7142,-2.7137,-2.7151,-2.7166,-2.7156,-2.717,-2.7168,-2.7168,-2.7095,-2.7086,-2.7177,-2.7177,-2.7177,-2.7177,-2.7177,-2.7177,-2.7084,-2.7115,-2.7108,-2.7141,-2.714,-2.7161,-2.7166,-2.7172,-2.7175,-2.72,-2.7212,-2.7209,-2.7209,-2.7223,-2.7237,-2.7234,-2.724,-2.7257,-2.7252,-2.7183,-2.7173,-2.7164,-2.7155,-2.7259,-2.7259,-2.7323,-2.7323,-2.7324]},{"header":{"parameterUnit":"m.s-1","parameterCategory":1,"la1":30.2991,"la2":30.254,"lo1":-89.0895,"lo2":-89.0444,"dy":0.0017,"dx":0.0017,"nx":28,"ny":28,"refTime":"2025-04-23T09:00:00:Z","depth":0,"parameterNumber":3,"parameterNumberName":"V-component_of_WINDS"},"data":[0,0,0,0,0,0,0,0,0,0,0,0,0,0,0,0,0,0,0,0,0,0,0,0,0,0,0,0,0,0,0,0,0,0,0,0,0,0,0,0,0,0,0,0,0,0,0,0,0,0,0,0,0,0,0,0,0,0,1.6787,1.6787,0,1.6812,1.6812,1.6812,1.6789,1.6788,1.6787,1.6787,1.681,1.6812,1.6813,0,0,0,0,0,0,0,0,0,0,0,0,0,1.6721,1.6722,1.6787,1.6787,1.6788,1.6811,1.6812,1.6812,1.6789,1.6788,1.6787,1.6786,1.681,1.6811,1.6813,0,0,0,0,0,0,0,0,0,0,0,0,0,1.6748,1.6723,1.6787,1.6779,1.6779,1.6811,1.6812,1.6812,1.679,1.6788,1.6787,1.6786,1.6809,1.6811,1.6813,1.6854,0,0,1.682,1.6821,0,0,0,0,0,0,0,0,1.6746,1.675,1.678,1.678,1.678,1.6796,1.6797,1.6826,1.679,1.6786,1.6787,1.6785,1.6807,1.6809,1.6816,1.6856,1.6857,1.682,1.6822,1.6823,1.6823,0,0,0,0,0,0,0,1.6744,1.6749,1.6797,1.6781,1.678,1.6775,1.6777,1.6802,1.6803,1.6786,1.6784,1.6788,1.6806,1.6814,1.6817,1.6857,1.682,1.6822,1.6824,1.6825,1.6932,1.6934,0,0,0,0,0,0,1.6744,1.6748,1.6796,1.6797,1.6759,1.6777,1.6779,1.6792,1.6803,1.6803,1.6789,1.6786,1.6811,1.6814,1.6817,1.6867,1.6823,1.6825,1.6826,1.6931,1.6932,1.6934,0,0,0,0,0,0,1.6742,1.6748,1.6795,1.6772,1.6778,1.6779,1.6794,1.6793,1.6801,1.6805,1.6805,1.6797,1.681,1.6814,1.6846,1.6867,1.6826,1.6828,1.6929,1.6931,1.6933,1.6966,0,0,0,0,0,0,1.674,1.6748,1.6763,1.6773,1.6779,1.6823,1.6795,1.6795,1.6806,1.6803,1.6813,1.6813,1.6809,1.6843,1.6848,1.687,1.683,1.6927,1.693,1.6933,1.6963,1.6969,1.6974,0,0,0,0,0,1.6738,1.6771,1.6764,1.677,1.6799,1.6824,1.6828,1.6823,1.6807,1.6823,1.6826,1.6813,1.6864,1.6846,1.6852,1.6875,1.6925,1.6929,1.6932,1.696,1.6968,1.6974,0,0,0,0,0,0,1.6763,1.6772,1.6765,1.6801,1.6813,1.6821,1.684,1.6831,1.6846,1.6843,1.6836,1.6839,1.6872,1.6876,1.6856,1.6915,1.6892,1.6897,1.6911,1.6919,1.6924,1.6923,1.6831,0,0,0,0,0,1.6773,1.6794,1.68,1.6832,1.6838,1.6838,1.6849,1.6845,1.6856,1.686,1.6865,1.6876,1.6894,1.6907,1.6924,1.6963,1.6966,1.6982,1.6988,1.6992,1.6997,1.7019,1.7026,1.6945,1.6945,1.6945,0,0,1.6793,1.6801,1.6814,1.6837,1.6845,1.6867,1.6842,1.6865,1.6881,1.6863,1.6894,1.6898,1.6909,1.6945,1.6961,1.695,1.702,1.6997,1.7,1.7002,1.7023,1.7031,1.7038,1.6948,1.6947,1.6947,0,0,1.6842,1.6849,1.6877,1.6886,1.6899,1.6899,1.6906,1.6916,1.6918,1.6949,1.6936,1.6955,1.6986,1.6996,1.7005,1.7058,1.7047,1.7064,1.7094,1.7115,1.7122,1.7127,1.7147,1.7154,1.7068,1.7068,1.7068,0,1.6866,1.6898,1.6893,1.6918,1.6928,1.6914,1.6943,1.6951,1.6969,1.6977,1.6964,1.7004,1.7011,1.705,1.7063,1.707,1.7078,1.7063,1.7121,1.7127,1.7132,1.7151,1.7158,1.707,1.707,1.707,1.7069,0,1.6927,1.6949,1.697,1.6989,1.7002,1.7028,1.7027,1.7041,1.7036,1.7038,1.707,1.7077,1.7097,1.7105,1.71,1.7143,1.7136,1.7122,1.7099,1.7142,1.7159,1.7167,1.7073,1.7072,1.7072,1.7071,0,0,1.6991,1.7007,1.7015,1.7024,1.7037,1.7055,1.7081,1.71,1.7113,1.7125,1.7148,1.7176,1.7164,1.7174,1.7169,1.7188,1.7231,1.7172,1.7173,1.7184,1.7281,1.7291,1.73,1.7224,1.7226,1.7227,1.728,0,1.704,1.7086,1.7083,1.7126,1.7148,1.7135,1.7158,1.7169,1.7171,1.719,1.7192,1.7212,1.7194,1.7201,1.7219,1.7222,1.7251,1.7218,1.7245,1.7246,1.7243,1.7309,1.732,1.737,1.7287,1.7288,1.7289,0,1.7104,1.712,1.7166,1.7178,1.7186,1.7207,1.7225,1.7243,1.7255,1.7256,1.7268,1.7261,1.7287,1.7264,1.73,1.7278,1.7289,1.7293,1.7294,1.7297,1.727,1.7314,1.7385,1.7393,1.7299,1.7299,1.7298,0,1.7147,1.718,1.7212,1.722,1.7234,1.7249,1.7256,1.7267,1.7279,1.7295,1.7303,1.7321,1.7332,1.7346,1.7344,1.7327,1.7382,1.7358,1.7384,1.7384,1.7396,1.7395,1.7471,1.7402,1.7402,1.7402,1.7402,0,1.7203,1.7231,1.7232,1.7252,1.7284,1.728,1.7312,1.7316,1.7327,1.7347,1.7337,1.7356,1.7353,1.7372,1.7371,1.7402,1.7407,1.7408,1.7407,1.7409,1.7409,1.7416,1.7413,1.7404,1.7404,1.7403,1.7403,0,1.7256,1.7258,1.7292,1.7303,1.7307,1.733,1.7339,1.7358,1.736,1.7386,1.7392,1.7396,1.7418,1.7418,1.7443,1.7442,1.7481,1.7476,1.7477,1.7476,1.7502,1.75,1.7585,1.7597,1.752,1.7521,1.7522,0,1.7292,1.7314,1.7328,1.7341,1.7349,1.7371,1.7384,1.7381,1.7395,1.7412,1.7428,1.745,1.7467,1.7504,1.7509,1.7528,1.7524,1.7553,1.7527,1.7528,1.7525,1.7524,1.7527,1.7558,1.7559,1.7559,1.756,0,1.7355,1.7356,1.7375,1.7395,1.7411,1.7426,1.744,1.7452,1.7451,1.7467,1.749,1.7504,1.753,1.7552,1.7572,1.7578,1.7569,1.7568,1.7575,1.7577,1.7577,1.7579,1.7491,1.7566,1.7565,1.7565,1.7565,1.7564,1.7402,1.7421,1.7434,1.7457,1.7467,1.7481,1.75,1.7505,1.7524,1.7546,1.7543,1.757,1.7582,1.7607,1.7616,1.7636,1.7626,1.7636,1.7639,1.7642,1.7645,1.7574,1.764,1.7639,1.7639,1.7639,1.7639,0,1.7465,1.7474,1.7494,1.7515,1.7533,1.7523,1.7539,1.7554,1.7578,1.759,1.7608,1.7635,1.7657,1.7664,1.7685,1.77,1.7696,1.7705,1.7704,1.7706,1.7652,1.7645,1.7708,1.7708,1.7708,1.7708,1.7708,1.7708,1.7501,1.7533,1.7535,1.7573,1.7581,1.7608,1.7617,1.763,1.7641,1.7672,1.769,1.7695,1.7705,1.7727,1.7747,1.7748,1.7756,1.7767,1.7767,1.7717,1.771,1.7703,1.7696,1.7769,1.7769,1.7819,1.782,1.782]}]]